Regional Weather Roundup
Issued by NWS

Home | Current Version | Previous Version | Text Only | Print | Product List | Glossary Off
Versions: 1 2 3 4 5 6 7 8 9 10 11 12 13 14 15 16 17 18 19 20 21 22 23 24 25 26 27 28 29 30 31 32 33 34 35 36 37 38 39 40 41 42 43 44 45 46 47 48 49 50

000
ASUS43 KLSX 301359
RWRMO

WEATHER SUMMARY FOR MISSOURI
NATIONAL WEATHER SERVICE SPRINGFIELD MO
800 AM CST FRI JAN 30 2015

NOTE: "FAIR" INDICATES FEW OR NO CLOUDS BELOW 12,000 FEET WITH NO
       SIGNIFICANT WEATHER AND/OR OBSTRUCTIONS TO VISIBILITY.
       CURRENT SKY AND/OR WEATHER CONDITIONS ARE NOT AVAILABLE FOR
       CHILLICOTHE AND FARMINGTON.

MOZ001>031-035>038-043-044-053-054-301500-
...NORTHERN AND WESTERN MISSOURI...

CITY           SKY/WX    TMP DP  RH WIND       PRES   REMARKS
KANSAS CTY INT PTCLDY    22  19  89 NE5       30.53S WCI  16
KANSAS C DTWN  CLEAR     24  19  81 NE5       30.55S WCI  18
LEE`S SUMMIT   PTCLDY    24  19  81 NE6       30.53F WCI  17
ST JOSEPH      FAIR      17  14  88 N3        30.56S FOG
CHILLICOTHE      N/A     22  17  81 N3        30.56S
KIRKSVILLE     CLEAR     18  15  88 CALM      30.54S

$$
MOZ066>068-077>081-088>096-101>105-301500-
...SOUTHWEST MISSOURI...

CITY           SKY/WX    TMP DP  RH WIND       PRES   REMARKS
SPRINGFIELD    PTCLDY    25  22  88 NE3       30.50R
JOPLIN         PTCLDY    24  21  88 CALM      30.54R FOG

$$
MOZ032>034-039>042-045>050-055>058-069>072-301500-
...CENTRAL MISSOURI...

CITY           SKY/WX    TMP DP  RH WIND       PRES   REMARKS
COLUMBIA       CLEAR     23  19  85 N5        30.54R WCI  17
JEFFERSON CITY CLEAR     23  19  85 CALM      30.56R
ROLLA          PTCLDY    24  20  84 N3        30.49R
SEDALIA        CLEAR     24  19  81 N6        30.55R WCI  17
OSAGE BEACH    CLEAR     25  19  80 CALM      30.53S

$$
MOZ051-052-059>065-301500-
...EAST CENTRAL MISSOURI...

CITY           SKY/WX    TMP DP  RH WIND       PRES   REMARKS
ST LOUIS INTL  PTCLDY    29  17  61 N8        30.55R WCI  21
SPIRIT OF STL  PTCLDY    28  18  66 N6        30.55R WCI  22
ST CHARLES     PTCLDY    27  19  72 N5        30.56R WCI  22

$$
MOZ072>076-082>087-097>100-106>115-301500-
...SOUTH CENTRAL AND SOUTHEAST MISSOURI...

CITY           SKY/WX    TMP DP  RH WIND       PRES   REMARKS
CAPE GIRARDEAU PTCLDY    32  24  72 N12       30.51R WCI  23
FARMINGTON     MOCLDY    27  21  80 N8        30.53R WCI  18
POPLAR BLUFF   CLEAR     32  23  69 N7        30.51R WCI  26
WEST PLAINS      N/A     27  21  78 N7        30.49R WCI  19

$$


USA.gov is the U.S. government's official web portal to all federal, state and local government web resources and services.